| time (UTC) | temp F | wind direction | speed MPH | gust MPH | rain 1hr in | rain 24hr in | rain mn in | humidity % | barometer mb |
| 20260903201609 | 82 | 0 | 0.0 | 8.0 | 0.00 | 0.00 | 0.00 | 29 | 1008.8 |
| 20260903200108 | 80 | 0 | 5.0 | 12.0 | 0.00 | 0.00 | 0.00 | 30 | 1008.8 |
| 20260903194605 | 80 | 325 | 7.0 | 15.0 | 0.00 | 0.00 | 0.00 | 30 | 1008.7 |
| 20260903193113 | 81 | 294 | 6.0 | 10.0 | 0.00 | 0.00 | 0.00 | 31 | 1008.6 |
| 20260903191605 | 80 | 227 | 1.0 | 10.0 | 0.00 | 0.00 | 0.00 | 37 | 1008.6 |
| 20260903190107 | 80 | 68 | 4.0 | 12.0 | 0.00 | 0.00 | 0.00 | 35 | 1008.6 |
| 20260903184605 | 80 | 167 | 0.0 | 7.0 | 0.00 | 0.00 | 0.00 | 41 | 1008.5 |
| 20260903183106 | 79 | 338 | 1.0 | 6.0 | 0.00 | 0.00 | 0.00 | 45 | 1008.4 |
| 20260903181609 | 78 | 150 | 0.0 | 2.0 | 0.00 | 0.00 | 0.00 | 49 | 1008.5 |
| 20260903180112 | 76 | 0 | 0.0 | 4.0 | 0.00 | 0.00 | 0.00 | 54 | 1008.8 |
| 20260903174606 | 74 | 178 | 0.0 | 7.0 | 0.00 | 0.00 | 0.00 | 60 | 1009.1 |
| 20260903173106 | 72 | 166 | 0.0 | 5.0 | 0.00 | 0.00 | 0.00 | 64 | 1009.2 |
| 20260903171615 | 71 | 0 | 0.0 | 6.0 | 0.00 | 0.00 | 0.00 | 66 | 1009.2 |
| 20260903170107 | 71 | 0 | 0.0 | 8.0 | 0.00 | 0.00 | 0.00 | 65 | 1009.2 |
| 20260903164640 | 71 | 222 | 1.0 | 11.0 | 0.00 | 0.00 | 0.00 | 64 | 1009.2 |
| 20260903163104 | 69 | 166 | 1.0 | 12.0 | 0.00 | 0.00 | 0.00 | 68 | 1009.3 |
| 20260903161608 | 68 | 180 | 9.0 | 15.0 | 0.00 | 0.00 | 0.00 | 70 | 1009.2 |
| 20260903160113 | 66 | 167 | 2.0 | 8.0 | 0.00 | 0.00 | 0.00 | 72 | 1009.3 |
| 20260903154608 | 66 | 163 | 2.0 | 6.0 | 0.00 | 0.00 | 0.00 | 74 | 1009.3 |
| 20260903153108 | 64 | 96 | 7.0 | 13.0 | 0.00 | 0.00 | 0.00 | 74 | 1009.1 |
| 20260903151604 | 64 | 169 | 3.0 | 9.0 | 0.00 | 0.00 | 0.00 | 75 | 1010.0 |
| 20260903150107 | 63 | 78 | 9.0 | 11.0 | 0.00 | 0.00 | 0.00 | 76 | 1009.3 |
| 20260903144614 | 63 | 0 | 0.0 | 2.0 | 0.00 | 0.00 | 0.00 | 77 | 1009.7 |
| 20260903143109 | 62 | 19 | 5.0 | 8.0 | 0.00 | 0.00 | 0.00 | 78 | 1009.2 |
| 20260903141606 | 61 | 341 | 5.0 | 12.0 | 0.00 | 0.00 | 0.00 | 80 | 1009.3 |
| 20260903140108 | 61 | 27 | 6.0 | 10.0 | 0.00 | 0.00 | 0.00 | 81 | 1008.9 |
| 20260903134622 | 60 | 341 | 3.0 | 7.0 | 0.00 | 0.00 | 0.00 | 81 | 1009.3 |
| 20260903133117 | 59 | 330 | 6.0 | 9.0 | 0.00 | 0.00 | 0.00 | 82 | 1009.1 |
| 20260903131609 | 59 | 327 | 6.0 | 10.0 | 0.00 | 0.00 | 0.00 | 82 | 1008.9 |
| 20260903130112 | 59 | 337 | 8.0 | 9.0 | 0.00 | 0.00 | 0.00 | 81 | 1008.6 |
| 20260903124622 | 59 | 31 | 4.0 | 6.0 | 0.00 | 0.00 | 0.00 | 80 | 1008.2 |
| 20260903123112 | 58 | 19 | 6.0 | 10.0 | 0.00 | 0.00 | 0.00 | 80 | 1008.0 |
| 20260903121615 | 58 | 34 | 6.0 | 9.0 | 0.00 | 0.00 | 0.00 | 81 | 1008.1 |
| 20260903120112 | 58 | 340 | 8.0 | 10.0 | 0.00 | 0.00 | 0.00 | 80 | 1008.3 |
| 20260903114610 | 58 | 334 | 5.0 | 8.0 | 0.00 | 0.00 | 0.00 | 80 | 1008.4 |
| 20260903113147 | 59 | 49 | 1.0 | 3.0 | 0.00 | 0.00 | 0.00 | 78 | 1008.2 |
| 20260903111604 | 60 | 45 | 5.0 | 12.0 | 0.00 | 0.00 | 0.00 | 77 | 1008.4 |
| 20260903110111 | 59 | 52 | 7.0 | 10.0 | 0.00 | 0.00 | 0.00 | 79 | 1008.0 |
| 20260903104611 | 60 | 65 | 3.0 | 8.0 | 0.00 | 0.00 | 0.00 | 76 | 1008.2 |
| 20260903103107 | 61 | 325 | 4.0 | 8.0 | 0.00 | 0.00 | 0.00 | 75 | 1008.1 |
| 20260903101633 | 61 | 344 | 1.0 | 7.0 | 0.00 | 0.00 | 0.00 | 75 | 1007.7 |
| 20260903100104 | 61 | 37 | 2.0 | 10.0 | 0.00 | 0.00 | 0.00 | 76 | 1007.1 |
| 20260903094604 | 63 | 96 | 7.0 | 11.0 | 0.00 | 0.00 | 0.00 | 73 | 1006.8 |
| 20260903093108 | 64 | 86 | 12.0 | 19.0 | 0.00 | 0.00 | 0.00 | 71 | 1006.6 |
| 20260903091608 | 64 | 82 | 12.0 | 16.0 | 0.00 | 0.00 | 0.00 | 72 | 1006.5 |
| 20260903090109 | 64 | 86 | 14.0 | 19.0 | 0.00 | 0.00 | 0.00 | 71 | 1006.5 |
| 20260903084609 | 63 | 74 | 14.0 | 22.0 | 0.00 | 0.00 | 0.00 | 72 | 1006.5 |
| 20260903083108 | 63 | 64 | 17.0 | 26.0 | 0.00 | 0.00 | 0.00 | 73 | 1006.7 |
| 20260903081608 | 64 | 62 | 15.0 | 22.0 | 0.00 | 0.00 | 0.00 | 70 | 1007.1 |
| 20260903080109 | 65 | 39 | 15.0 | 22.0 | 0.00 | 0.00 | 0.00 | 69 | 1007.4 |
| 20260903074603 | 65 | 37 | 14.0 | 20.0 | 0.00 | 0.00 | 0.00 | 70 | 1007.6 |
| 20260903073109 | 64 | 47 | 15.0 | 26.0 | 0.00 | 0.00 | 0.00 | 72 | 1007.8 |
| 20260903071614 | 65 | 40 | 17.0 | 27.0 | 0.00 | 0.00 | 0.00 | 69 | 1008.1 |
| 20260903070110 | 66 | 16 | 20.0 | 26.0 | 0.00 | 0.00 | 0.00 | 67 | 1007.8 |
| 20260903064603 | 66 | 9 | 21.0 | 27.0 | 0.00 | 0.00 | 0.00 | 67 | 1007.8 |
| 20260903063106 | 69 | 327 | 15.0 | 24.0 | 0.00 | 0.00 | 0.00 | 61 | 1007.7 |
| 20260903061607 | 71 | 326 | 10.0 | 18.0 | 0.00 | 0.00 | 0.00 | 57 | 1007.4 |
| 20260903060108 | 74 | 348 | 2.0 | 32.0 | 0.00 | 0.00 | 0.00 | 62 | 1007.7 |
| 20260903054605 | 72 | 300 | 13.0 | 23.0 | 0.00 | 0.00 | 0.00 | 63 | 1007.6 |
| 20260903053106 | 70 | 95 | 10.0 | 14.0 | 0.00 | 0.00 | 0.00 | 70 | 1005.6 |
| 20260903051621 | 71 | 117 | 10.0 | 15.0 | 0.00 | 0.00 | 0.00 | 69 | 1005.8 |
| 20260903050115 | 71 | 120 | 12.0 | 20.0 | 0.00 | 0.00 | 0.00 | 69 | 1005.7 |
| 20260903044605 | 71 | 117 | 14.0 | 19.0 | 0.00 | 0.00 | 0.00 | 69 | 1005.7 |
| 20260903043208 | 71 | 98 | 15.0 | 19.0 | 0.00 | 0.00 | 0.00 | 70 | 1005.7 |
| 20260903041608 | 71 | 103 | 14.0 | 16.0 | 0.00 | 0.00 | 0.00 | 71 | 1006.2 |
| 20260903040115 | 71 | 111 | 12.0 | 17.0 | 0.00 | 0.00 | 0.00 | 70 | 1006.9 |
| 20260903034606 | 72 | 107 | 12.0 | 15.0 | 0.00 | 0.00 | 0.00 | 69 | 1006.7 |
| 20260903033107 | 72 | 113 | 11.0 | 14.0 | 0.00 | 0.00 | 0.00 | 68 | 1006.7 |
| 20260903031606 | 73 | 124 | 11.0 | 15.0 | 0.00 | 0.00 | 0.00 | 66 | 1006.7 |
| 20260903030107 | 74 | 115 | 13.0 | 17.0 | 0.00 | 0.00 | 0.00 | 64 | 1006.6 |
| 20260903024608 | 75 | 118 | 12.0 | 15.0 | 0.00 | 0.00 | 0.00 | 60 | 1006.5 |
| 20260903023105 | 76 | 119 | 11.0 | 17.0 | 0.00 | 0.00 | 0.00 | 57 | 1006.5 |
| 20260903021607 | 77 | 144 | 11.0 | 16.0 | 0.00 | 0.00 | 0.00 | 56 | 1006.5 |
| 20260903020105 | 78 | 115 | 13.0 | 18.0 | 0.00 | 0.00 | 0.00 | 54 | 1006.4 |
| 20260903014604 | 79 | 139 | 15.0 | 22.0 | 0.00 | 0.00 | 0.00 | 53 | 1006.5 |
| 20260903013110 | 80 | 139 | 14.0 | 22.0 | 0.00 | 0.00 | 0.00 | 52 | 1006.5 |
| 20260903011602 | 81 | 160 | 20.0 | 30.0 | 0.00 | 0.00 | 0.00 | 50 | 1006.5 |
| 20260903010107 | 82 | 150 | 19.0 | 32.0 | 0.00 | 0.00 | 0.00 | 48 | 1006.4 |
| 20260903004608 | 83 | 148 | 18.0 | 25.0 | 0.00 | 0.00 | 0.00 | 47 | 1006.5 |
| 20260903003106 | 83 | 140 | 21.0 | 27.0 | 0.00 | 0.00 | 0.00 | 46 | 1006.4 |
| 20260903001606 | 83 | 152 | 17.0 | 27.0 | 0.00 | 0.00 | 0.00 | 46 | 1006.3 |
| 20260903000110 | 84 | 150 | 20.0 | 27.0 | 0.00 | 0.00 | 0.00 | 44 | 1006.4 |
| 20260902234617 | 86 | 146 | 19.0 | 30.0 | 0.00 | 0.00 | 0.00 | 42 | 1006.5 |
| 20260902233104 | 87 | 155 | 18.0 | 27.0 | 0.00 | 0.00 | 0.00 | 40 | 1006.3 |
| 20260902231617 | 87 | 110 | 16.0 | 24.0 | 0.00 | 0.00 | 0.00 | 37 | 1006.6 |
| 20260902230107 | 86 | 163 | 15.0 | 21.0 | 0.00 | 0.00 | 0.00 | 39 | 1006.7 |
| 20260902224613 | 86 | 158 | 15.0 | 22.0 | 0.00 | 0.00 | 0.00 | 38 | 1007.0 |
| 20260902223107 | 87 | 172 | 16.0 | 23.0 | 0.00 | 0.00 | 0.00 | 37 | 1007.0 |
| 20260902221608 | 86 | 171 | 15.0 | 21.0 | 0.00 | 0.00 | 0.00 | 38 | 1007.0 |
| 20260902220107 | 86 | 161 | 13.0 | 25.0 | 0.00 | 0.00 | 0.00 | 38 | 1007.1 |
| 20260902214608 | 86 | 171 | 18.0 | 26.0 | 0.00 | 0.00 | 0.00 | 39 | 1007.3 |
| 20260902213129 | 87 | 134 | 15.0 | 27.0 | 0.00 | 0.00 | 0.00 | 40 | 1007.3 |
| 20260902211606 | 86 | 152 | 16.0 | 30.0 | 0.00 | 0.00 | 0.00 | 40 | 1007.6 |
| 20260902210109 | 86 | 190 | 15.0 | 28.0 | 0.00 | 0.00 | 0.00 | 42 | 1007.7 |
| 20260902204606 | 85 | 161 | 18.0 | 28.0 | 0.00 | 0.00 | 0.00 | 42 | 1007.9 |
| 20260902203109 | 86 | 166 | 18.0 | 30.0 | 0.00 | 0.00 | 0.00 | 43 | 1008.1 |